Location: Viterbo
(42.4170°N, 12.1000°E)
Time: 12:38:52
(UTC+01:00)

ITAMSAT 1 - Visible Passes

Search period start: 19 January 2020 00:00
Search period end: 29 January 2020 00:00
Orbit: 783 x 797 km, 98.9° (Epoch: 19 January)

Date Brightness Start Highest point End Pass type
(mag) Time Alt. Az. Time Alt. Az. Time Alt. Az.
19 Jan 7.8 05:49:42 10° NNE 05:54:54 76° ESE 06:00:05 10° S visible
20 Jan 9.0 05:20:30 10° NNE 05:25:22 40° E 05:30:14 10° SSE visible
20 Jan 8.6 07:00:21 10° N 07:04:37 27° WNW 07:08:53 10° WSW visible
20 Jan 10.7 18:21:00 10° SW 18:23:54 15° W 18:26:50 10° NW visible
21 Jan 10.0 04:51:46 10° NE 04:55:44 22° E 04:59:40 10° SE visible
21 Jan 7.9 06:30:26 10° N 06:35:23 47° WNW 06:40:20 10° SW visible
21 Jan 10.0 17:49:47 10° SSW 17:54:11 28° W 17:58:37 10° NW visible
22 Jan 10.8 04:24:24 10° ENE 04:25:56 11° E 04:27:29 10° ESE visible
22 Jan 7.6 06:00:49 10° NNE 06:06:02 87° WNW 06:11:14 10° SSW visible
23 Jan 8.5 05:31:30 10° NNE 05:36:33 51° E 05:41:35 10° S visible
23 Jan 11.0 18:33:26 10° WSW 18:35:11 12° W 18:36:57 10° WNW visible
24 Jan 9.7 05:02:33 10° NE 05:06:57 27° E 05:11:19 10° SSE visible
24 Jan 8.1 06:41:42 10° N 06:46:28 38° WNW 06:51:13 10° SW visible
24 Jan 10.4 18:01:24 10° SW 18:05:24 22° W 18:09:26 10° NW visible
25 Jan 10.6 04:34:24 10° ENE 04:37:13 15° E 04:40:01 10° ESE visible
25 Jan 7.6 06:11:59 10° N 06:17:09 70° WNW 06:22:19 10° SSW visible
26 Jan 8.1 05:42:33 10° NNE 05:47:43 64° ESE 05:52:52 10° S visible
27 Jan 9.3 05:13:27 10° NNE 05:18:10 34° E 05:22:51 10° SSE visible
27 Jan 8.4 06:53:00 10° N 06:57:31 31° WNW 07:02:02 10° SW visible
27 Jan 10.6 18:13:11 10° SW 18:16:39 18° W 18:20:08 10° NW visible
28 Jan 10.3 04:44:55 10° NE 04:48:29 18° E 04:52:01 10° SE visible
28 Jan 7.7 06:23:10 10° N 06:28:15 56° WNW 06:33:20 10° SSW visible
28 Jan 9.7 17:42:19 10° SSW 17:46:57 33° W 17:51:37 10° NNW visible
